Tracking 29892 objects as of 21-Nov-2024
HD Live streaming from Space Station
objects crossing your sky now

COSMOS 2242

Track COSMOS 2242 now!
10-day predictions
COSMOS 2242 is classified as:


NORAD ID: 22626
Int'l Code: 1993-024A
Perigee: 580.9 km
Apogee: 607.1 km
Inclination: 82.5 °
Period: 96.4 minutes
Semi major axis: 6965 km
RCS: 9.205 m2 (large)
Launch date: April 16, 1993
Source: Commonwealth of Independent States (former USSR) (CIS)
Launch site: PLESETSK MISSILE AND SPACE COMPLEX (PKMTR)

Cosmos 2242 was a Russian ELINT (Electronic and Signals Intelligence) satellite.
Your satellite tracking list
Your tracking list is empty




NASA's NSSDC Master Catalog

Two Line Element Set (TLE):
1 22626U 93024A   24325.89975894  .00003344  00000-0  31401-3 0  9997
2 22626  82.5205 358.8557 0018825  97.8480 262.4879 14.93545007709599
Source of the keplerian elements: AFSPC